Oconto, WI

9:17 PM CDT on October 13, 2019 (GMT -0500)
Oconto Municipal

Weather History for KOCQ - June, 2019

Change the Weather History Date:

Sunday, June 2, 2019

  Actual Average Record
Temperature  
Mean Temperature 52 °F -  
Max Temperature 64 °F 72 °F 81 °F (2017)
Min Temperature 39 °F 47 °F 34 °F (2015)
Degree Days  
Heating Degree Days 13    
Growing Degree Days 2 (Base 50)    
Moisture  
Dew Point 39 °F    
Average Humidity 62    
Maximum Humidity 98    
Minimum Humidity 28    
Precipitation  
Precipitation 0.00 in - - ()
Sea Level Pressure  
Sea Level Pressure 29.95 in    
Wind  
Wind Speed 4 mph (NNE)    
Max Wind Speed 14 mph    
Max Gust Speed 18 mph    
Visibility 10 miles    
Events      
Averages and records for this station are not official NWS values.
T = Trace of Precipitation, MM = Missing Value Source: NWS Daily Summary

Daily Weather History Graph

Daily Weather History Graph

Search for Another Location

Airport or City:

Astronomy

Jun. 02, 2019 Rise Set
Actual Time 5:08 AM CDT 8:31 PM CDT
Civil Twilight 4:32 AM CDT 9:07 PM CDT
Nautical Twilight 3:44 AM CDT 9:55 PM CDT
Astronomical Twilight 2:44 AM CDT 10:55 PM CDT
Moon 4:53 AM CDT (6/2) 7:46 PM CDT (6/2)
Length of Visible Light 16h 35m
Length of Day
15h 23m
Waning Crescent, 1% of the Moon is Illuminated
Jun 2
Waning Crescent
Jun 3
New
Jun 10
First Quarter
Jun 17
Full
Jun 25
Last Quarter

Hourly Weather History & Observations

Time (CDT) Temp. Dew Point Humidity Pressure Visibility Wind Dir Wind Speed Gust Speed Precip Events Conditions
12:15 AM 52.0 °F 49.5 °F 91% 29.83 in 10.0 mi Calm Calm - N/A   Overcast
12:35 AM 51.4 °F 49.5 °F 93% 29.84 in 10.0 mi Calm Calm - N/A   Overcast
12:55 AM 50.2 °F 48.9 °F 95% 29.83 in 10.0 mi Calm Calm - N/A   Mostly Cloudy
1:15 AM 49.3 °F 48.6 °F 97% 29.83 in 10.0 mi Calm Calm - N/A   Scattered Clouds
1:35 AM 48.2 °F 47.7 °F 98% 29.84 in 10.0 mi Calm Calm - N/A   Clear
1:55 AM 47.7 °F 46.9 °F 97% 29.84 in 10.0 mi Calm Calm - N/A   Clear
2:15 AM 46.0 °F 45.5 °F 98% 29.84 in 10.0 mi Calm Calm - N/A   Clear
2:35 AM 48.2 °F 47.5 °F 97% 29.84 in 10.0 mi Calm Calm - N/A   Mostly Cloudy
2:55 AM 48.7 °F 47.5 °F 95% 29.85 in 10.0 mi NNW 4.6 mph - N/A   Overcast
3:15 AM 50.0 °F 46.0 °F 86% 29.85 in 10.0 mi North 3.5 mph - N/A   Overcast
3:35 AM 49.5 °F 45.0 °F 84% 29.86 in 10.0 mi North 4.6 mph - N/A   Mostly Cloudy
3:55 AM 49.6 °F 43.3 °F 79% 29.86 in 10.0 mi North 5.8 mph - N/A   Scattered Clouds
4:15 AM 49.6 °F 41.4 °F 73% 29.86 in 10.0 mi North 5.8 mph - N/A   Clear
4:35 AM 49.1 °F 40.3 °F 72% 29.87 in 10.0 mi North 5.8 mph - N/A   Clear
4:55 AM 48.2 °F 40.1 °F 74% 29.88 in 10.0 mi North 5.8 mph - N/A   Clear
5:15 AM 47.5 °F 39.7 °F 75% 29.89 in 10.0 mi North 5.8 mph - N/A   Clear
5:35 AM 46.8 °F 39.9 °F 77% 29.89 in 10.0 mi North 6.9 mph - N/A   Clear
5:55 AM 47.3 °F 39.2 °F 73% 29.90 in 10.0 mi North 3.5 mph - N/A   Clear
6:15 AM 47.5 °F 38.7 °F 71% 29.91 in 10.0 mi North 4.6 mph - N/A   Clear
6:35 AM 48.0 °F 37.8 °F 68% 29.92 in 10.0 mi North 5.8 mph - N/A   Clear
6:55 AM 48.4 °F 36.5 °F 64% 29.93 in 10.0 mi North 8.1 mph - N/A   Clear
7:15 AM 49.1 °F 36.5 °F 62% 29.93 in 10.0 mi North 5.8 mph - N/A   Clear
7:35 AM 49.5 °F 36.3 °F 61% 29.94 in 10.0 mi NNW 10.4 mph - N/A   Clear
7:55 AM 50.4 °F 35.2 °F 56% 29.94 in 10.0 mi NNW 5.8 mph - N/A   Clear
8:15 AM 51.8 °F 36.0 °F 55% 29.95 in 10.0 mi North 9.2 mph - N/A   Clear
8:35 AM 52.3 °F 35.2 °F 52% 29.95 in 10.0 mi NNW 4.6 mph - N/A   Clear
8:55 AM 53.4 °F 35.4 °F 51% 29.95 in 10.0 mi NW 5.8 mph - N/A   Clear
9:15 AM 54.5 °F 33.8 °F 46% 29.96 in 10.0 mi North 6.9 mph - N/A   Clear
9:35 AM 55.4 °F 34.9 °F 46% 29.96 in 10.0 mi North 5.8 mph - N/A   Clear
9:55 AM 56.1 °F 35.1 °F 45% 29.97 in 10.0 mi WNW 6.9 mph - N/A   Clear
10:15 AM 57.2 °F 36.3 °F 46% 29.97 in 10.0 mi WNW 5.8 mph - N/A   Clear
10:35 AM 57.6 °F 35.1 °F 43% 29.97 in 10.0 mi NNW 8.1 mph - N/A   Clear
10:55 AM 59.4 °F 37.0 °F 43% 29.96 in 10.0 mi North 4.6 mph - N/A   Clear
11:15 AM 60.3 °F 37.0 °F 42% 29.96 in 10.0 mi North 5.8 mph - N/A   Clear
11:35 AM 60.6 °F 34.2 °F 37% 29.96 in 10.0 mi North 3.5 mph - N/A   Clear
11:55 AM 62.4 °F 33.4 °F 34% 29.95 in 10.0 mi North 13.8 mph 17.3 mph N/A   Clear
12:15 PM 63.9 °F 33.1 °F 32% 29.96 in 10.0 mi WNW 11.5 mph 17.3 mph N/A   Clear
12:35 PM 63.5 °F 32.0 °F 31% 29.96 in 10.0 mi NNW 10.4 mph 18.4 mph N/A   Clear
12:55 PM 64.4 °F 32.5 °F 30% 29.95 in 10.0 mi North 13.8 mph 17.3 mph N/A   Scattered Clouds
1:15 PM 64.6 °F 32.4 °F 30% 29.95 in 10.0 mi North 11.5 mph - N/A   Scattered Clouds
1:35 PM 64.4 °F 30.7 °F 28% 29.95 in 10.0 mi NE 10.4 mph 18.4 mph N/A   Scattered Clouds
1:55 PM 60.1 °F 40.6 °F 49% 29.95 in 10.0 mi ESE 5.8 mph - N/A   Scattered Clouds
2:15 PM 60.6 °F 39.6 °F 46% 29.95 in 10.0 mi ESE 10.4 mph - N/A   Scattered Clouds
2:35 PM 60.8 °F 39.2 °F 45% 29.95 in 10.0 mi East 8.1 mph - N/A   Clear
2:55 PM 60.1 °F 39.7 °F 47% 29.95 in 10.0 mi ENE 9.2 mph - N/A   Clear
3:15 PM 58.6 °F 40.1 °F 50% 29.96 in 10.0 mi East 9.2 mph - N/A   Scattered Clouds
3:35 PM 59.7 °F 39.9 °F 48% 29.96 in 10.0 mi ESE 10.4 mph 17.3 mph N/A   Scattered Clouds
3:55 PM 61.0 °F 37.6 °F 42% 29.97 in 10.0 mi East 10.4 mph - N/A   Scattered Clouds
4:15 PM 58.1 °F 35.6 °F 43% 29.97 in 10.0 mi East 10.4 mph 16.1 mph N/A   Mostly Cloudy
4:35 PM 57.9 °F 34.9 °F 42% 29.97 in 10.0 mi East 4.6 mph - N/A   Scattered Clouds
4:55 PM 59.4 °F 40.5 °F 50% 29.97 in 10.0 mi ESE 10.4 mph - N/A   Scattered Clouds
5:15 PM 59.0 °F 39.2 °F 48% 29.97 in 10.0 mi ESE 10.4 mph - N/A   Clear
5:35 PM 58.6 °F 39.2 °F 48% 29.98 in 10.0 mi ESE 5.8 mph - N/A   Clear
5:55 PM 58.6 °F 37.2 °F 45% 29.99 in 10.0 mi East 8.1 mph - N/A   Clear
6:15 PM 57.7 °F 37.6 °F 47% 29.99 in 10.0 mi East 9.2 mph - N/A   Clear
6:35 PM 56.5 °F 38.7 °F 51% 30.00 in 10.0 mi ESE 9.2 mph - N/A   Clear
6:55 PM 55.6 °F 38.7 °F 53% 30.00 in 10.0 mi East 8.1 mph - N/A   Clear
7:15 PM 54.9 °F 37.2 °F 51% 30.01 in 10.0 mi ESE 10.4 mph - N/A   Clear
7:35 PM 53.6 °F 36.3 °F 52% 30.02 in 10.0 mi East 6.9 mph - N/A   Clear
7:55 PM 52.3 °F 36.0 °F 54% 30.03 in 10.0 mi East 5.8 mph - N/A   Clear
8:15 PM 50.9 °F 36.1 °F 57% 30.03 in 10.0 mi ESE 5.8 mph - N/A   Clear
8:35 PM 49.1 °F 36.7 °F 62% 30.04 in 10.0 mi SE 5.8 mph - N/A   Clear
8:55 PM 48.0 °F 36.3 °F 64% 30.04 in 10.0 mi SSE 3.5 mph - N/A   Clear
9:15 PM 45.7 °F 37.6 °F 73% 30.05 in 10.0 mi Calm Calm - N/A   Clear
9:35 PM 44.8 °F 37.4 °F 75% 30.06 in 10.0 mi Calm Calm - N/A   Clear
9:55 PM 44.2 °F 37.4 °F 77% 30.06 in 10.0 mi Calm Calm - N/A   Clear
10:15 PM 43.7 °F 38.3 °F 81% 30.07 in 10.0 mi Calm Calm - N/A   Clear
10:35 PM 41.5 °F 38.5 °F 89% 30.07 in 10.0 mi Calm Calm - N/A   Clear
10:55 PM 41.0 °F 37.8 °F 88% 30.07 in 10.0 mi Calm Calm - N/A   Clear
11:15 PM 41.0 °F 37.9 °F 89% 30.07 in 10.0 mi Calm Calm - N/A   Clear
11:35 PM 40.6 °F 37.9 °F 90% 30.08 in 10.0 mi Calm Calm - N/A   Clear
11:55 PM 39.4 °F 37.9 °F 95% 30.08 in 10.0 mi Calm Calm - N/A   Clear